This is the latest recevied weather packets stored in our database for station/object ON7SD-5. If no packets are shown the sender has not sent any weather packets the latest 10 day(s).
| Time | Temp. | Humidity | Pressure | Rain* | Wind** | Luminosity | Snow |
|---|---|---|---|---|---|---|---|
| 1777345942 | 10.56° C | 72% | 1019.2 hPa | 0 mm | - | 0 W/m² | - |
| 1777345642 | 10.56° C | 71% | 1019.3 hPa | 0 mm | - | 0 W/m² | - |
| 1777345342 | 10.56° C | 71% | 1019.3 hPa | 0 mm | - | 0 W/m² | - |
| 1777345042 | 10.56° C | 70% | 1019.2 hPa | 0 mm | - | 0 W/m² | - |
| 1777344742 | 10.56° C | 69% | 1019.3 hPa | 0 mm | - | 0 W/m² | - |
| 1777344442 | 10.56° C | 69% | 1019.3 hPa | 0 mm | - | 0 W/m² | - |
| 1777343842 | 10.56° C | 69% | 1019.3 hPa | 0 mm | - | 0 W/m² | - |
| 1777343542 | 11.11° C | 70% | 1019.3 hPa | 0 mm | - | 0 W/m² | - |
| 1777343242 | 11.11° C | 70% | 1019.3 hPa | 0 mm | - | 0 W/m² | - |
| 1777342942 | 11.11° C | 69% | 1019.4 hPa | 0 mm | - | 0 W/m² | - |
| 1777342642 | 11.11° C | 69% | 1019.4 hPa | 0 mm | - | 0 W/m² | - |
| 1777342042 | 11.11° C | 68% | 1019.4 hPa | 0 mm | - | 0 W/m² | - |
| 1777340842 | 11.11° C | 67% | 1019.5 hPa | 0 mm | - | 0 W/m² | - |
| 1777339942 | 11.11° C | 66% | 1019.4 hPa | 0 mm | - | 0 W/m² | - |
| 1777339342 | 11.67° C | 65% | 1019.5 hPa | 0 mm | - | 0 W/m² | - |
| 1777339042 | 11.67° C | 64% | 1019.5 hPa | 0 mm | - | 0 W/m² | - |
| 1777338742 | 11.67° C | 63% | 1019.5 hPa | 0 mm | - | 0 W/m² | - |
| 1777329143 | 12.78° C | 64% | 1019.7 hPa | 0 mm | - | 0 W/m² | - |
| 1777313843 | 15.56° C | 50% | 1019.7 hPa | 0 mm | - | 30 W/m² | - |
| 1777313243 | 16.11° C | 50% | 1019.7 hPa | 0 mm | - | 39 W/m² | - |
| 1777312943 | 16.11° C | 49% | 1019.7 hPa | 0 mm | - | 42 W/m² | - |
| 1777312643 | 16.11° C | 49% | 1019.7 hPa | 0 mm | - | 44 W/m² | - |
| 1777311443 | 17.22° C | 47% | 1019.7 hPa | 0 mm | - | 120 W/m² | - |
| 1777311143 | 17.78° C | 47% | 1019.7 hPa | 0 mm | - | 111 W/m² | - |
| 1777310843 | 17.78° C | 47% | 1019.7 hPa | 0 mm | - | 197 W/m² | - |
* Rain latest hour (hover to see other rain measurements)
** Current wind speed in m/s (hover to see current wind gust speed)